Time,TemperatureF,DewpointF,PressureIn,WindDirection,WindDirectionDegrees,WindSpeedMPH,WindSpeedGustMPH,Humidity,HourlyPrecipIn,Conditions,Clouds,dailyrainin,SolarRadiationWatts/m^2,SoftwareType,DateUTC
2013-02-03 00:00:00,26.9,25.4,30.07,SW,232,0.0,0.0,94,0.00,,,0.00,0,LWC V2.00 B2112,2013-02-03 05:00:00,
2013-02-03 00:05:00,26.8,25.3,30.07,SW,232,0.0,0.0,94,0.00,,,0.00,0,LWC V2.00 B2112,2013-02-03 05:05:00,
2013-02-03 00:10:00,26.8,25.3,30.06,SW,232,0.0,0.0,94,0.00,,,0.00,0,LWC V2.00 B2112,2013-02-03 05:10:00,
2013-02-03 00:15:00,26.9,25.4,30.06,SW,232,0.0,0.0,94,0.00,,,0.00,0,LWC V2.00 B2112,2013-02-03 05:15:00,
2013-02-03 00:20:00,27.0,25.5,30.06,SW,232,0.0,0.0,94,0.00,,,0.00,0,LWC V2.00 B2112,2013-02-03 05:20:00,
2013-02-03 00:25:00,26.8,25.3,30.06,SW,232,0.0,0.0,94,0.00,,,0.00,0,LWC V2.00 B2112,2013-02-03 05:25:00,
2013-02-03 00:30:00,26.7,25.2,30.05,SW,232,0.0,0.0,94,0.00,,,0.00,0,LWC V2.00 B2112,2013-02-03 05:30:00,
2013-02-03 00:35:00,26.6,25.1,30.05,SW,232,0.0,0.0,94,0.00,,,0.00,0,LWC V2.00 B2112,2013-02-03 05:35:00,
2013-02-03 00:40:00,26.5,25.0,30.05,WSW,258,1.0,1.0,94,0.00,,,0.00,0,LWC V2.00 B2112,2013-02-03 05:40:00,
2013-02-03 00:45:00,26.3,24.8,30.04,WSW,258,0.0,0.0,94,0.00,,,0.00,0,LWC V2.00 B2112,2013-02-03 05:45:00,
2013-02-03 00:50:00,26.1,24.6,30.03,WSW,258,0.0,0.0,94,0.00,,,0.00,0,LWC V2.00 B2112,2013-02-03 05:50:00,
2013-02-03 00:55:00,25.9,24.4,30.03,WSW,258,0.0,0.0,94,0.00,,,0.00,0,LWC V2.00 B2112,2013-02-03 05:55:00,
2013-02-03 01:00:00,25.8,24.3,30.03,WSW,258,0.0,0.0,94,0.00,,,0.00,0,LWC V2.00 B2112,2013-02-03 06:00:00,
2013-02-03 01:05:00,25.8,24.3,30.03,WSW,258,0.0,0.0,94,0.00,,,0.00,0,LWC V2.00 B2112,2013-02-03 06:05:00,
2013-02-03 01:10:00,25.9,24.4,30.03,WSW,258,0.0,0.0,94,0.00,,,0.00,0,LWC V2.00 B2112,2013-02-03 06:10:00,
2013-02-03 01:15:00,26.0,24.5,30.03,WSW,258,0.0,0.0,94,0.00,,,0.00,0,LWC V2.00 B2112,2013-02-03 06:15:00,
2013-02-03 01:20:00,25.9,24.4,30.03,WSW,258,0.0,0.0,94,0.00,,,0.00,0,LWC V2.00 B2112,2013-02-03 06:20:00,
2013-02-03 01:25:00,25.7,24.2,30.02,WSW,258,0.0,0.0,94,0.00,,,0.00,0,LWC V2.00 B2112,2013-02-03 06:25:00,
2013-02-03 01:30:00,25.6,24.1,30.03,WSW,258,0.0,0.0,94,0.00,,,0.00,0,LWC V2.00 B2112,2013-02-03 06:30:00,
2013-02-03 01:35:00,25.4,23.9,30.03,WSW,258,0.0,0.0,94,0.00,,,0.00,0,LWC V2.00 B2112,2013-02-03 06:35:00,
2013-02-03 01:40:00,25.4,23.9,30.03,WSW,258,0.0,0.0,94,0.00,,,0.00,0,LWC V2.00 B2112,2013-02-03 06:40:00,
2013-02-03 01:45:00,25.3,23.8,30.03,WSW,258,0.0,0.0,94,0.00,,,0.00,0,LWC V2.00 B2112,2013-02-03 06:45:00,
2013-02-03 01:50:00,25.3,24.1,30.02,WSW,258,0.0,0.0,95,0.00,,,0.00,0,LWC V2.00 B2112,2013-02-03 06:50:00,
2013-02-03 01:55:00,25.3,24.1,30.02,WSW,258,0.0,0.0,95,0.00,,,0.00,0,LWC V2.00 B2112,2013-02-03 06:55:00,
2013-02-03 02:00:00,25.2,24.0,30.02,WSW,258,0.0,0.0,95,0.00,,,0.00,0,LWC V2.00 B2112,2013-02-03 07:00:00,
2013-02-03 02:05:00,25.0,23.8,30.02,WSW,258,0.0,0.0,95,0.00,,,0.00,0,LWC V2.00 B2112,2013-02-03 07:05:00,
2013-02-03 02:10:00,24.9,23.7,30.02,WSW,258,0.0,0.0,95,0.00,,,0.00,0,LWC V2.00 B2112,2013-02-03 07:10:00,
2013-02-03 02:15:00,24.8,23.6,30.02,WSW,258,0.0,0.0,95,0.00,,,0.00,0,LWC V2.00 B2112,2013-02-03 07:15:00,
2013-02-03 02:20:00,24.8,23.6,30.01,WSW,258,0.0,0.0,95,0.00,,,0.00,0,LWC V2.00 B2112,2013-02-03 07:20:00,
2013-02-03 02:25:00,24.6,23.4,30.01,WSW,258,0.0,0.0,95,0.00,,,0.00,0,LWC V2.00 B2112,2013-02-03 07:25:00,
2013-02-03 02:30:00,24.4,23.2,30.01,WSW,258,0.0,0.0,95,0.00,,,0.00,0,LWC V2.00 B2112,2013-02-03 07:30:00,
2013-02-03 02:35:00,24.3,23.1,30.01,WSW,258,0.0,0.0,95,0.00,,,0.00,0,LWC V2.00 B2112,2013-02-03 07:35:00,
2013-02-03 02:40:00,24.1,22.9,30.01,WSW,258,0.0,0.0,95,0.00,,,0.00,0,LWC V2.00 B2112,2013-02-03 07:40:00,
2013-02-03 02:45:00,24.0,22.8,30.01,WSW,258,0.0,0.0,95,0.00,,,0.00,0,LWC V2.00 B2112,2013-02-03 07:45:00,
2013-02-03 02:50:00,24.0,22.8,30.00,WSW,258,0.0,0.0,95,0.00,,,0.00,0,LWC V2.00 B2112,2013-02-03 07:50:00,
2013-02-03 02:55:00,24.1,22.9,30.00,WSW,258,0.0,0.0,95,0.00,,,0.00,0,LWC V2.00 B2112,2013-02-03 07:55:00,
2013-02-03 03:00:00,24.0,22.8,30.00,WSW,258,0.0,0.0,95,0.00,,,0.00,0,LWC V2.00 B2112,2013-02-03 08:00:00,
2013-02-03 03:05:00,23.8,22.6,30.00,WSW,258,0.0,0.0,95,0.00,,,0.00,0,LWC V2.00 B2112,2013-02-03 08:05:00,
2013-02-03 03:10:00,23.5,22.3,30.00,WSW,258,0.0,0.0,95,0.00,,,0.00,0,LWC V2.00 B2112,2013-02-03 08:10:00,
2013-02-03 03:15:00,23.3,22.1,30.00,WSW,258,0.0,0.0,95,0.00,,,0.00,0,LWC V2.00 B2112,2013-02-03 08:15:00,
2013-02-03 03:20:00,23.3,22.1,30.00,WSW,258,0.0,0.0,95,0.00,,,0.00,0,LWC V2.00 B2112,2013-02-03 08:20:00,
2013-02-03 03:25:00,23.2,22.0,29.99,WSW,258,0.0,0.0,95,0.00,,,0.00,0,LWC V2.00 B2112,2013-02-03 08:25:00,
2013-02-03 03:30:00,23.1,21.9,29.99,WSW,258,0.0,0.0,95,0.00,,,0.00,0,LWC V2.00 B2112,2013-02-03 08:30:00,
2013-02-03 03:35:00,22.8,21.6,29.99,WSW,258,0.0,0.0,95,0.00,,,0.00,0,LWC V2.00 B2112,2013-02-03 08:35:00,
2013-02-03 03:40:00,22.6,21.4,29.98,WSW,258,0.0,0.0,95,0.00,,,0.00,0,LWC V2.00 B2112,2013-02-03 08:40:00,
2013-02-03 03:45:00,22.4,21.2,29.98,WSW,258,0.0,0.0,95,0.00,,,0.00,0,LWC V2.00 B2112,2013-02-03 08:45:00,
2013-02-03 03:50:00,22.2,21.0,29.98,WSW,258,0.0,0.0,95,0.00,,,0.00,0,LWC V2.00 B2112,2013-02-03 08:50:00,
2013-02-03 03:55:00,22.2,21.0,29.97,WSW,258,0.0,0.0,95,0.00,,,0.00,0,LWC V2.00 B2112,2013-02-03 08:55:00,
2013-02-03 04:00:00,22.1,20.9,29.97,WSW,258,0.0,0.0,95,0.00,,,0.00,0,LWC V2.00 B2112,2013-02-03 09:00:00,
2013-02-03 04:05:00,22.2,21.0,29.98,WSW,258,0.0,0.0,95,0.00,,,0.00,0,LWC V2.00 B2112,2013-02-03 09:05:00,
2013-02-03 04:10:00,22.1,20.9,29.98,WSW,258,0.0,0.0,95,0.00,,,0.00,0,LWC V2.00 B2112,2013-02-03 09:10:00,
2013-02-03 04:15:00,22.2,21.0,29.97,WSW,258,0.0,0.0,95,0.00,,,0.00,0,LWC V2.00 B2112,2013-02-03 09:15:00,
2013-02-03 04:20:00,22.0,20.8,29.98,WSW,258,0.0,0.0,95,0.00,,,0.00,0,LWC V2.00 B2112,2013-02-03 09:20:00,
2013-02-03 04:25:00,21.9,20.7,29.98,WSW,258,0.0,0.0,95,0.00,,,0.00,0,LWC V2.00 B2112,2013-02-03 09:25:00,
2013-02-03 04:30:00,21.8,20.6,29.98,WSW,258,0.0,0.0,95,0.00,,,0.00,0,LWC V2.00 B2112,2013-02-03 09:30:00,
2013-02-03 04:35:00,21.6,20.4,29.98,WSW,258,0.0,0.0,95,0.00,,,0.00,0,LWC V2.00 B2112,2013-02-03 09:35:00,
2013-02-03 04:40:00,21.6,20.4,29.98,WSW,258,0.0,0.0,95,0.00,,,0.00,0,LWC V2.00 B2112,2013-02-03 09:40:00,
2013-02-03 04:45:00,21.5,20.3,29.98,WSW,258,0.0,0.0,95,0.00,,,0.00,0,LWC V2.00 B2112,2013-02-03 09:45:00,
2013-02-03 04:50:00,21.3,20.1,29.98,WSW,258,0.0,0.0,95,0.00,,,0.00,0,LWC V2.00 B2112,2013-02-03 09:50:00,
2013-02-03 04:55:00,21.2,20.0,29.98,WSW,258,0.0,0.0,95,0.00,,,0.00,0,LWC V2.00 B2112,2013-02-03 09:55:00,
2013-02-03 05:00:00,21.2,20.0,29.98,WSW,258,0.0,0.0,95,0.00,,,0.00,0,LWC V2.00 B2112,2013-02-03 10:00:00,
2013-02-03 05:05:00,21.3,20.1,29.97,WSW,258,0.0,0.0,95,0.00,,,0.00,0,LWC V2.00 B2112,2013-02-03 10:05:00,
2013-02-03 05:10:00,21.3,20.1,29.97,WSW,258,0.0,0.0,95,0.00,,,0.00,0,LWC V2.00 B2112,2013-02-03 10:10:00,
2013-02-03 05:15:00,21.2,20.0,29.97,WSW,258,0.0,0.0,95,0.00,,,0.00,0,LWC V2.00 B2112,2013-02-03 10:15:00,
2013-02-03 05:20:00,21.1,19.6,29.97,WSW,258,0.0,0.0,94,0.00,,,0.00,0,LWC V2.00 B2112,2013-02-03 10:20:00,
2013-02-03 05:25:00,21.0,19.5,29.97,WSW,258,0.0,0.0,94,0.00,,,0.00,0,LWC V2.00 B2112,2013-02-03 10:25:00,
2013-02-03 05:30:00,20.8,19.4,29.97,WSW,258,0.0,0.0,94,0.00,,,0.00,0,LWC V2.00 B2112,2013-02-03 10:30:00,
2013-02-03 05:35:00,20.8,19.4,29.98,WSW,258,0.0,0.0,94,0.00,,,0.00,0,LWC V2.00 B2112,2013-02-03 10:35:00,
2013-02-03 05:40:00,20.7,19.3,29.98,WSW,258,0.0,0.0,94,0.00,,,0.00,0,LWC V2.00 B2112,2013-02-03 10:40:00,
2013-02-03 05:45:00,20.7,19.3,29.98,WSW,258,0.0,0.0,94,0.00,,,0.00,0,LWC V2.00 B2112,2013-02-03 10:45:00,
2013-02-03 05:50:00,20.6,19.2,29.98,WSW,258,0.0,0.0,94,0.00,,,0.00,0,LWC V2.00 B2112,2013-02-03 10:50:00,
2013-02-03 05:55:00,20.5,19.1,29.98,WSW,258,0.0,0.0,94,0.00,,,0.00,0,LWC V2.00 B2112,2013-02-03 10:55:00,
2013-02-03 06:00:00,20.3,18.9,29.98,WSW,258,0.0,0.0,94,0.00,,,0.00,0,LWC V2.00 B2112,2013-02-03 11:00:00,
2013-02-03 06:05:00,20.2,18.8,29.97,WSW,258,0.0,0.0,94,0.00,,,0.00,0,LWC V2.00 B2112,2013-02-03 11:05:00,
2013-02-03 06:10:00,20.2,18.8,29.98,WSW,258,0.0,0.0,94,0.00,,,0.00,0,LWC V2.00 B2112,2013-02-03 11:10:00,
2013-02-03 06:15:00,20.0,18.6,29.97,WSW,258,0.0,0.0,94,0.00,,,0.00,0,LWC V2.00 B2112,2013-02-03 11:15:00,
2013-02-03 06:20:00,19.9,18.5,29.97,WSW,258,0.0,0.0,94,0.00,,,0.00,0,LWC V2.00 B2112,2013-02-03 11:20:00,
2013-02-03 06:25:00,19.9,18.5,29.97,WSW,258,0.0,0.0,94,0.00,,,0.00,0,LWC V2.00 B2112,2013-02-03 11:25:00,
2013-02-03 06:30:00,20.0,18.6,29.97,WSW,258,0.0,0.0,94,0.00,,,0.00,0,LWC V2.00 B2112,2013-02-03 11:30:00,
2013-02-03 06:35:00,20.0,18.6,29.97,WSW,258,0.0,0.0,94,0.00,,,0.00,0,LWC V2.00 B2112,2013-02-03 11:35:00,
2013-02-03 06:40:00,20.1,18.7,29.97,WSW,258,0.0,0.0,94,0.00,,,0.00,0,LWC V2.00 B2112,2013-02-03 11:40:00,
2013-02-03 06:45:00,20.1,18.7,29.97,WSW,258,0.0,0.0,94,0.00,,,0.00,0,LWC V2.00 B2112,2013-02-03 11:45:00,
2013-02-03 06:50:00,20.1,18.7,29.97,WSW,258,0.0,0.0,94,0.00,,,0.00,0,LWC V2.00 B2112,2013-02-03 11:50:00,
2013-02-03 06:55:00,20.2,18.8,29.98,WSW,258,0.0,0.0,94,0.00,,,0.00,0,LWC V2.00 B2112,2013-02-03 11:55:00,
2013-02-03 07:00:00,20.2,18.8,29.98,WSW,258,0.0,0.0,94,0.00,,,0.00,0,LWC V2.00 B2112,2013-02-03 12:00:00,
2013-02-03 07:05:00,20.1,18.7,29.98,WSW,258,0.0,0.0,94,0.00,,,0.00,0,LWC V2.00 B2112,2013-02-03 12:05:00,
2013-02-03 07:10:00,20.1,18.7,29.98,WSW,258,0.0,0.0,94,0.00,,,0.00,0,LWC V2.00 B2112,2013-02-03 12:10:00,
2013-02-03 07:15:00,20.1,18.7,29.98,WSW,258,0.0,0.0,94,0.00,,,0.00,0,LWC V2.00 B2112,2013-02-03 12:15:00,
2013-02-03 07:20:00,20.0,18.6,29.98,WSW,258,0.0,0.0,94,0.00,,,0.00,0,LWC V2.00 B2112,2013-02-03 12:20:00,
2013-02-03 07:25:00,20.0,18.6,29.98,WSW,258,0.0,0.0,94,0.00,,,0.00,0,LWC V2.00 B2112,2013-02-03 12:25:00,
2013-02-03 07:30:00,20.2,18.8,29.98,WSW,258,0.0,0.0,94,0.00,,,0.00,5,LWC V2.00 B2112,2013-02-03 12:30:00,
2013-02-03 07:35:00,20.2,18.8,29.98,WSW,258,0.0,0.0,94,0.00,,,0.00,7,LWC V2.00 B2112,2013-02-03 12:35:00,
2013-02-03 07:40:00,20.3,18.9,29.99,WSW,258,0.0,0.0,94,0.00,,,0.00,9,LWC V2.00 B2112,2013-02-03 12:40:00,
2013-02-03 07:45:00,20.4,19.0,29.99,WSW,258,0.0,0.0,94,0.00,,,0.00,12,LWC V2.00 B2112,2013-02-03 12:45:00,
2013-02-03 07:50:00,20.7,19.3,29.99,WSW,258,0.0,0.0,94,0.00,,,0.00,19,LWC V2.00 B2112,2013-02-03 12:50:00,
2013-02-03 07:55:00,21.0,19.5,29.99,WSW,258,0.0,0.0,94,0.00,,,0.00,26,LWC V2.00 B2112,2013-02-03 12:55:00,
2013-02-03 08:00:00,21.3,19.8,29.99,WSW,258,0.0,0.0,94,0.00,,,0.00,28,LWC V2.00 B2112,2013-02-03 13:00:00,
2013-02-03 08:05:00,21.6,20.1,29.99,WSW,258,0.0,0.0,94,0.00,,,0.00,26,LWC V2.00 B2112,2013-02-03 13:05:00,
2013-02-03 08:10:00,22.0,20.5,30.00,WSW,258,0.0,0.0,94,0.00,,,0.00,26,LWC V2.00 B2112,2013-02-03 13:10:00,
2013-02-03 08:15:00,22.4,20.9,30.00,WSW,258,0.0,0.0,94,0.00,,,0.00,26,LWC V2.00 B2112,2013-02-03 13:15:00,
2013-02-03 08:20:00,22.7,21.2,30.00,WSW,258,0.0,0.0,94,0.00,,,0.00,26,LWC V2.00 B2112,2013-02-03 13:20:00,
2013-02-03 08:25:00,22.8,21.3,30.00,WSW,258,0.0,0.0,94,0.00,,,0.00,35,LWC V2.00 B2112,2013-02-03 13:25:00,
2013-02-03 08:30:00,23.1,21.6,29.99,WSW,258,0.0,0.0,94,0.00,,,0.00,39,LWC V2.00 B2112,2013-02-03 13:30:00,
2013-02-03 08:35:00,23.5,22.0,29.99,WSW,258,0.0,0.0,94,0.00,,,0.00,47,LWC V2.00 B2112,2013-02-03 13:35:00,
2013-02-03 08:40:00,24.0,22.8,30.00,WSW,258,0.0,0.0,95,0.00,,,0.00,49,LWC V2.00 B2112,2013-02-03 13:40:00,
2013-02-03 08:45:00,24.4,22.9,30.00,WSW,258,0.0,0.0,94,0.00,,,0.00,54,LWC V2.00 B2112,2013-02-03 13:45:00,
2013-02-03 08:50:00,24.7,23.2,30.00,WSW,258,0.0,0.0,94,0.00,,,0.00,65,LWC V2.00 B2112,2013-02-03 13:50:00,
2013-02-03 08:55:00,25.3,23.8,30.00,WSW,258,0.0,0.0,94,0.00,,,0.00,74,LWC V2.00 B2112,2013-02-03 13:55:00,
2013-02-03 09:00:00,25.7,24.2,29.99,WSW,258,0.0,0.0,94,0.00,,,0.00,81,LWC V2.00 B2112,2013-02-03 14:00:00,
2013-02-03 09:05:00,26.0,24.5,29.99,WSW,258,0.0,0.0,94,0.00,,,0.00,90,LWC V2.00 B2112,2013-02-03 14:05:00,
2013-02-03 09:10:00,26.3,24.8,29.99,West,266,0.0,0.0,94,0.00,,,0.00,90,LWC V2.00 B2112,2013-02-03 14:10:00,
2013-02-03 09:15:00,26.7,25.2,29.99,West,266,0.0,0.0,94,0.00,,,0.00,88,LWC V2.00 B2112,2013-02-03 14:15:00,
2013-02-03 09:20:00,27.0,25.5,29.99,West,266,0.0,0.0,94,0.00,,,0.00,90,LWC V2.00 B2112,2013-02-03 14:20:00,
2013-02-03 09:25:00,27.2,25.7,29.99,East,97,0.0,2.0,94,0.00,,,0.00,100,LWC V2.00 B2112,2013-02-03 14:25:00,
2013-02-03 09:30:00,27.3,25.5,29.99,East,89,2.0,3.0,93,0.00,,,0.00,100,LWC V2.00 B2112,2013-02-03 14:30:00,
2013-02-03 09:35:00,27.4,25.6,29.99,East,91,0.0,4.0,93,0.00,,,0.00,109,LWC V2.00 B2112,2013-02-03 14:35:00,
2013-02-03 09:40:00,27.8,26.0,29.99,East,91,0.0,2.0,93,0.00,,,0.00,111,LWC V2.00 B2112,2013-02-03 14:40:00,
2013-02-03 09:45:00,27.8,26.0,29.98,ESE,103,2.0,2.0,93,0.00,,,0.00,113,LWC V2.00 B2112,2013-02-03 14:45:00,
2013-02-03 09:50:00,27.9,25.9,29.98,SSE,166,0.0,2.0,92,0.00,,,0.00,125,LWC V2.00 B2112,2013-02-03 14:50:00,
2013-02-03 09:55:00,28.2,26.2,29.98,East,81,0.0,1.0,92,0.00,,,0.00,127,LWC V2.00 B2112,2013-02-03 14:55:00,
2013-02-03 10:00:00,28.3,26.0,29.98,ESE,114,0.0,2.0,91,0.00,,,0.00,97,LWC V2.00 B2112,2013-02-03 15:00:00,
2013-02-03 10:05:00,28.1,25.8,29.98,ESE,114,0.0,1.0,91,0.00,,,0.00,98,LWC V2.00 B2112,2013-02-03 15:05:00,
2013-02-03 10:10:00,28.0,25.5,29.98,East,86,0.0,1.0,90,0.00,,,0.00,93,LWC V2.00 B2112,2013-02-03 15:10:00,
2013-02-03 10:15:00,28.0,25.5,29.98,East,86,0.0,1.0,90,0.00,,,0.00,74,LWC V2.00 B2112,2013-02-03 15:15:00,
2013-02-03 10:20:00,27.9,25.4,29.98,East,86,0.0,2.0,90,0.00,,,0.00,90,LWC V2.00 B2112,2013-02-03 15:20:00,
2013-02-03 10:25:00,28.0,25.5,29.97,East,82,3.0,3.0,90,0.00,,,0.00,83,LWC V2.00 B2112,2013-02-03 15:25:00,
2013-02-03 10:30:00,28.0,25.5,29.97,East,85,0.0,0.0,90,0.00,,,0.00,81,LWC V2.00 B2112,2013-02-03 15:30:00,
2013-02-03 10:35:00,28.0,25.2,29.97,East,85,0.0,2.0,89,0.00,,,0.00,121,LWC V2.00 B2112,2013-02-03 15:35:00,
2013-02-03 10:40:00,28.1,25.6,29.97,East,82,0.0,2.0,90,0.00,,,0.00,142,LWC V2.00 B2112,2013-02-03 15:40:00,
2013-02-03 10:45:00,28.6,25.8,29.97,East,82,0.0,1.0,89,0.00,,,0.00,178,LWC V2.00 B2112,2013-02-03 15:45:00,
2013-02-03 10:51:00,28.8,26.0,29.96,East,99,0.0,1.0,89,0.00,,,0.00,197,LWC V2.00 B2112,2013-02-03 15:51:00,
2013-02-03 10:56:00,29.2,26.1,29.96,East,99,0.0,0.0,88,0.00,,,0.00,192,LWC V2.00 B2112,2013-02-03 15:56:00,
2013-02-03 11:01:00,29.2,25.8,29.96,SE,133,0.0,2.0,87,0.00,,,0.00,218,LWC V2.00 B2112,2013-02-03 16:01:00,
2013-02-03 11:06:00,29.4,26.0,29.96,SE,133,0.0,2.0,87,0.00,,,0.00,323,LWC V2.00 B2112,2013-02-03 16:06:00,
2013-02-03 11:11:00,29.7,26.0,29.96,SE,133,0.0,0.0,86,0.00,,,0.00,443,LWC V2.00 B2112,2013-02-03 16:11:00,
2013-02-03 11:16:00,29.9,25.7,29.95,SE,132,0.0,1.0,84,0.00,,,0.00,301,LWC V2.00 B2112,2013-02-03 16:16:00,
2013-02-03 11:21:00,29.6,25.7,29.95,ENE,61,1.0,2.0,85,0.00,,,0.00,272,LWC V2.00 B2112,2013-02-03 16:21:00,
2013-02-03 11:26:00,29.3,25.4,29.95,ENE,61,0.0,2.0,85,0.00,,,0.00,244,LWC V2.00 B2112,2013-02-03 16:26:00,
2013-02-03 11:31:00,29.4,25.5,29.95,ENE,61,0.0,4.0,85,0.00,,,0.00,218,LWC V2.00 B2112,2013-02-03 16:31:00,
2013-02-03 11:36:00,29.4,25.5,29.95,ENE,61,1.0,2.0,85,0.00,,,0.01,197,LWC V2.00 B2112,2013-02-03 16:36:00,
2013-02-03 11:41:00,29.3,25.4,29.94,ENE,61,0.0,1.0,85,0.00,,,0.01,197,LWC V2.00 B2112,2013-02-03 16:41:00,
2013-02-03 11:46:00,29.4,25.2,29.94,ENE,61,0.0,0.0,84,0.06,,,0.02,199,LWC V2.00 B2112,2013-02-03 16:46:00,
2013-02-03 11:51:00,29.7,25.8,29.94,ENE,61,0.0,1.0,85,0.06,,,0.02,204,LWC V2.00 B2112,2013-02-03 16:51:00,
2013-02-03 11:56:00,29.9,25.7,29.94,ENE,61,0.0,2.0,84,0.05,,,0.02,221,LWC V2.00 B2112,2013-02-03 16:56:00,
2013-02-03 12:01:00,29.8,25.6,29.94,ENE,61,0.0,0.0,84,0.00,,,0.02,264,LWC V2.00 B2112,2013-02-03 17:01:00,
2013-02-03 12:06:00,30.1,25.9,29.93,ENE,61,0.0,0.0,84,0.00,,,0.02,380,LWC V2.00 B2112,2013-02-03 17:06:00,
2013-02-03 12:11:00,30.4,25.9,29.93,ENE,61,0.0,0.0,83,0.00,,,0.03,425,LWC V2.00 B2112,2013-02-03 17:11:00,
2013-02-03 12:16:00,31.1,26.8,29.93,North,0,2.0,3.0,84,0.00,,,0.03,297,LWC V2.00 B2112,2013-02-03 17:16:00,
2013-02-03 12:21:00,30.7,26.2,29.92,North,359,0.0,1.0,83,0.00,,,0.03,230,LWC V2.00 B2112,2013-02-03 17:21:00,
2013-02-03 12:26:00,30.4,25.6,29.92,North,359,0.0,0.0,82,0.00,,,0.03,200,LWC V2.00 B2112,2013-02-03 17:26:00,
2013-02-03 12:31:00,30.5,26.0,29.92,North,11,0.0,2.0,83,0.00,,,0.03,209,LWC V2.00 B2112,2013-02-03 17:31:00,
2013-02-03 12:36:00,30.5,25.7,29.92,NNE,16,0.0,0.0,82,0.00,,,0.03,243,LWC V2.00 B2112,2013-02-03 17:36:00,
2013-02-03 12:41:00,30.5,25.7,29.91,NNE,16,0.0,0.0,82,0.00,,,0.04,230,LWC V2.00 B2112,2013-02-03 17:41:00,
2013-02-03 12:46:00,30.8,26.0,29.91,NNE,16,0.0,0.0,82,0.00,,,0.04,250,LWC V2.00 B2112,2013-02-03 17:46:00,
2013-02-03 12:51:00,31.0,26.2,29.91,NNE,16,0.0,0.0,82,0.00,,,0.04,250,LWC V2.00 B2112,2013-02-03 17:51:00,
2013-02-03 12:56:00,31.1,26.3,29.90,NNE,16,0.0,0.0,82,0.00,,,0.04,227,LWC V2.00 B2112,2013-02-03 17:56:00,
2013-02-03 13:01:00,31.0,25.9,29.90,NNE,16,1.0,1.0,81,0.00,,,0.04,257,LWC V2.00 B2112,2013-02-03 18:01:00,
2013-02-03 13:06:00,31.1,26.0,29.90,NNE,16,0.0,2.0,81,0.00,,,0.04,381,LWC V2.00 B2112,2013-02-03 18:06:00,
2013-02-03 13:11:00,31.5,26.4,29.90,NNE,16,0.0,1.0,81,0.00,,,0.04,287,LWC V2.00 B2112,2013-02-03 18:11:00,
2013-02-03 13:16:00,31.9,26.7,29.90,SSW,206,1.0,4.0,81,0.00,,,0.04,322,LWC V2.00 B2112,2013-02-03 18:16:00,
2013-02-03 13:21:00,31.9,26.1,29.90,WSW,250,0.0,2.0,79,0.00,,,0.04,367,LWC V2.00 B2112,2013-02-03 18:21:00,
2013-02-03 13:26:00,32.1,26.0,29.89,South,188,4.0,5.0,78,0.00,,,0.04,371,LWC V2.00 B2112,2013-02-03 18:26:00,
2013-02-03 13:31:00,32.4,26.3,29.89,SSW,212,0.0,0.0,78,0.00,,,0.04,496,LWC V2.00 B2112,2013-02-03 18:31:00,
2013-02-03 13:36:00,32.2,25.8,29.89,SSW,202,1.0,1.0,77,0.00,,,0.04,278,LWC V2.00 B2112,2013-02-03 18:36:00,
2013-02-03 13:41:00,33.3,26.9,29.88,SW,217,1.0,1.0,77,0.00,,,0.04,494,LWC V2.00 B2112,2013-02-03 18:41:00,
2013-02-03 13:46:00,33.6,27.2,29.89,SW,222,0.0,3.0,77,0.00,,,0.04,163,LWC V2.00 B2112,2013-02-03 18:46:00,
2013-02-03 13:51:00,33.1,26.7,29.88,SW,221,0.0,1.0,77,0.00,,,0.04,142,LWC V2.00 B2112,2013-02-03 18:51:00,
2013-02-03 13:56:00,33.0,26.9,29.88,SW,227,0.0,2.0,78,0.00,,,0.04,158,LWC V2.00 B2112,2013-02-03 18:56:00,
2013-02-03 14:01:00,32.9,26.5,29.88,WSW,252,0.0,1.0,77,0.00,,,0.04,165,LWC V2.00 B2112,2013-02-03 19:01:00,
2013-02-03 14:06:00,33.1,26.7,29.88,WSW,252,1.0,1.0,77,0.00,,,0.04,195,LWC V2.00 B2112,2013-02-03 19:06:00,
2013-02-03 14:11:00,33.0,26.3,29.88,WSW,256,0.0,0.0,76,0.00,,,0.04,225,LWC V2.00 B2112,2013-02-03 19:11:00,
2013-02-03 14:16:00,33.2,26.8,29.88,WSW,257,0.0,2.0,77,0.00,,,0.04,144,LWC V2.00 B2112,2013-02-03 19:16:00,
2013-02-03 14:21:00,33.3,27.5,29.88,NNW,335,0.0,1.0,79,0.00,,,0.04,179,LWC V2.00 B2112,2013-02-03 19:21:00,
2013-02-03 14:26:00,32.5,27.3,29.88,NNW,335,0.0,0.0,81,0.00,,,0.04,223,LWC V2.00 B2112,2013-02-03 19:26:00,
2013-02-03 14:31:00,32.3,27.1,29.88,WNW,290,0.0,0.0,81,0.00,,,0.04,188,LWC V2.00 B2112,2013-02-03 19:31:00,
2013-02-03 14:36:00,32.3,27.4,29.88,WNW,288,0.0,2.0,82,0.00,,,0.04,162,LWC V2.00 B2112,2013-02-03 19:36:00,
2013-02-03 14:41:00,32.4,27.8,29.88,WNW,290,0.0,0.0,83,0.00,,,0.04,181,LWC V2.00 B2112,2013-02-03 19:41:00,
2013-02-03 14:46:00,32.7,28.1,29.88,WNW,292,0.0,1.0,83,0.00,,,0.04,148,LWC V2.00 B2112,2013-02-03 19:46:00,
2013-02-03 14:51:00,32.4,27.8,29.88,WNW,292,0.0,0.0,83,0.00,,,0.04,185,LWC V2.00 B2112,2013-02-03 19:51:00,
2013-02-03 14:56:00,32.6,28.0,29.88,WNW,295,2.0,2.0,83,0.00,,,0.04,181,LWC V2.00 B2112,2013-02-03 19:56:00,
2013-02-03 15:01:00,32.4,27.8,29.88,SSW,197,1.0,2.0,83,0.00,,,0.04,169,LWC V2.00 B2112,2013-02-03 20:01:00,
2013-02-03 15:06:00,32.3,28.0,29.88,West,260,0.0,0.0,84,0.00,,,0.04,118,LWC V2.00 B2112,2013-02-03 20:06:00,
2013-02-03 15:11:00,32.3,28.0,29.88,West,260,0.0,0.0,84,0.00,,,0.04,141,LWC V2.00 B2112,2013-02-03 20:11:00,
2013-02-03 15:16:00,32.1,28.4,29.88,SSW,201,1.0,2.0,86,0.00,,,0.04,156,LWC V2.00 B2112,2013-02-03 20:16:00,
2013-02-03 15:21:00,32.1,28.4,29.88,SSW,213,0.0,0.0,86,0.00,,,0.04,183,LWC V2.00 B2112,2013-02-03 20:21:00,
2013-02-03 15:26:00,32.2,28.2,29.88,SSW,204,0.0,5.0,85,0.00,,,0.04,174,LWC V2.00 B2112,2013-02-03 20:26:00,
2013-02-03 15:31:00,32.1,28.1,29.88,SSW,193,0.0,0.0,85,0.00,,,0.04,146,LWC V2.00 B2112,2013-02-03 20:31:00,
2013-02-03 15:36:00,32.2,28.5,29.88,SSW,193,0.0,1.0,86,0.00,,,0.04,134,LWC V2.00 B2112,2013-02-03 20:36:00,
2013-02-03 15:41:00,32.3,28.6,29.88,SSW,199,3.0,3.0,86,0.00,,,0.04,111,LWC V2.00 B2112,2013-02-03 20:41:00,
2013-02-03 15:46:00,32.0,28.3,29.88,WSW,239,0.0,1.0,86,0.00,,,0.04,76,LWC V2.00 B2112,2013-02-03 20:46:00,
2013-02-03 15:51:00,31.9,28.2,29.88,WSW,239,0.0,0.0,86,0.00,,,0.04,77,LWC V2.00 B2112,2013-02-03 20:51:00,
2013-02-03 15:56:00,32.2,28.5,29.88,SSW,203,0.0,4.0,86,0.00,,,0.04,88,LWC V2.00 B2112,2013-02-03 20:56:00,
2013-02-03 16:01:00,32.2,28.5,29.88,SSW,204,0.0,1.0,86,0.00,,,0.04,81,LWC V2.00 B2112,2013-02-03 21:01:00,
2013-02-03 16:06:00,32.1,28.1,29.88,SSW,204,0.0,0.0,85,0.00,,,0.04,67,LWC V2.00 B2112,2013-02-03 21:06:00,
2013-02-03 16:11:00,32.1,28.1,29.88,SSW,204,0.0,1.0,85,0.00,,,0.04,26,LWC V2.00 B2112,2013-02-03 21:11:00,
2013-02-03 16:16:00,32.0,28.3,29.88,SSW,205,1.0,4.0,86,0.00,,,0.05,30,LWC V2.00 B2112,2013-02-03 21:16:00,
2013-02-03 16:21:00,32.0,28.3,29.88,SW,223,2.0,2.0,86,0.00,,,0.05,46,LWC V2.00 B2112,2013-02-03 21:21:00,
2013-02-03 16:26:00,31.9,28.2,29.88,SSW,209,0.0,2.0,86,0.00,,,0.05,67,LWC V2.00 B2112,2013-02-03 21:26:00,
2013-02-03 16:31:00,32.0,28.3,29.88,West,264,0.0,0.0,86,0.00,,,0.05,65,LWC V2.00 B2112,2013-02-03 21:31:00,
2013-02-03 16:36:00,32.1,28.7,29.88,West,264,0.0,0.0,87,0.00,,,0.05,53,LWC V2.00 B2112,2013-02-03 21:36:00,
2013-02-03 16:41:00,32.0,28.6,29.87,West,264,0.0,0.0,87,0.00,,,0.05,54,LWC V2.00 B2112,2013-02-03 21:41:00,
2013-02-03 16:46:00,32.0,28.6,29.87,West,264,0.0,1.0,87,0.00,,,0.05,54,LWC V2.00 B2112,2013-02-03 21:46:00,
2013-02-03 16:51:00,32.0,28.6,29.87,West,264,0.0,0.0,87,0.00,,,0.05,51,LWC V2.00 B2112,2013-02-03 21:51:00,
2013-02-03 16:56:00,32.0,28.9,29.87,West,264,0.0,0.0,88,0.00,,,0.05,49,LWC V2.00 B2112,2013-02-03 21:56:00,
2013-02-03 17:01:00,31.9,28.8,29.87,West,264,0.0,0.0,88,0.00,,,0.05,35,LWC V2.00 B2112,2013-02-03 22:01:00,
2013-02-03 17:06:00,31.9,28.8,29.87,West,264,0.0,1.0,88,0.00,,,0.05,21,LWC V2.00 B2112,2013-02-03 22:06:00,
2013-02-03 17:11:00,31.9,28.8,29.87,West,264,0.0,0.0,88,0.00,,,0.05,18,LWC V2.00 B2112,2013-02-03 22:11:00,
2013-02-03 17:16:00,31.7,28.6,29.88,West,264,0.0,0.0,88,0.00,,,0.05,16,LWC V2.00 B2112,2013-02-03 22:16:00,
2013-02-03 17:21:00,31.7,28.6,29.88,West,263,0.0,0.0,88,0.00,,,0.05,9,LWC V2.00 B2112,2013-02-03 22:21:00,
2013-02-03 17:26:00,31.7,28.6,29.88,West,263,0.0,0.0,88,0.00,,,0.05,0,LWC V2.00 B2112,2013-02-03 22:26:00,
2013-02-03 17:31:00,31.7,28.6,29.88,West,263,0.0,0.0,88,0.00,,,0.05,0,LWC V2.00 B2112,2013-02-03 22:31:00,
2013-02-03 17:36:00,31.6,28.7,29.88,West,263,0.0,0.0,89,0.00,,,0.05,0,LWC V2.00 B2112,2013-02-03 22:36:00,
2013-02-03 17:41:00,31.5,28.6,29.88,West,263,0.0,0.0,89,0.00,,,0.05,0,LWC V2.00 B2112,2013-02-03 22:41:00,
2013-02-03 17:46:00,31.4,28.5,29.87,West,263,0.0,0.0,89,0.00,,,0.05,0,LWC V2.00 B2112,2013-02-03 22:46:00,
2013-02-03 17:51:00,31.3,28.4,29.88,West,263,0.0,0.0,89,0.00,,,0.05,0,LWC V2.00 B2112,2013-02-03 22:51:00,
2013-02-03 17:56:00,31.3,28.4,29.87,West,262,0.0,1.0,89,0.00,,,0.05,0,LWC V2.00 B2112,2013-02-03 22:56:00,
2013-02-03 18:01:00,31.2,28.3,29.87,West,262,0.0,0.0,89,0.00,,,0.05,0,LWC V2.00 B2112,2013-02-03 23:01:00,
2013-02-03 18:06:00,31.2,28.6,29.87,West,262,0.0,0.0,90,0.00,,,0.05,0,LWC V2.00 B2112,2013-02-03 23:06:00,
2013-02-03 18:11:00,31.2,28.6,29.87,West,262,0.0,0.0,90,0.00,,,0.05,0,LWC V2.00 B2112,2013-02-03 23:11:00,
2013-02-03 18:12:00,31.2,28.6,29.87,West,262,1.0,2.0,90,0.00,,,0.05,0,LWC V2.00 B2112,2013-02-03 23:12:00,
2013-02-03 18:17:00,31.2,28.6,29.87,SSW,212,0.0,0.0,90,0.00,,,0.05,0,LWC V2.00 B2112,2013-02-03 23:17:00,
2013-02-03 18:22:00,31.0,28.1,29.88,SSW,212,0.0,0.0,89,0.00,,,0.05,0,LWC V2.00 B2112,2013-02-03 23:22:00,
2013-02-03 18:27:00,30.9,28.3,29.88,SSW,212,0.0,0.0,90,0.00,,,0.05,0,LWC V2.00 B2112,2013-02-03 23:27:00,
2013-02-03 18:32:00,30.8,28.2,29.88,SSW,212,0.0,0.0,90,0.00,,,0.05,0,LWC V2.00 B2112,2013-02-03 23:32:00,
2013-02-03 18:37:00,30.8,28.2,29.88,SSW,212,0.0,0.0,90,0.00,,,0.05,0,LWC V2.00 B2112,2013-02-03 23:37:00,
2013-02-03 18:42:00,30.9,28.3,29.88,SSW,212,0.0,0.0,90,0.00,,,0.05,0,LWC V2.00 B2112,2013-02-03 23:42:00,
2013-02-03 18:47:00,31.0,28.4,29.89,SSW,212,0.0,0.0,90,0.00,,,0.05,0,LWC V2.00 B2112,2013-02-03 23:47:00,
2013-02-03 18:52:00,31.1,28.5,29.89,SSW,212,0.0,0.0,90,0.00,,,0.05,0,LWC V2.00 B2112,2013-02-03 23:52:00,
2013-02-03 18:57:00,31.1,28.2,29.89,SSW,212,0.0,0.0,89,0.00,,,0.05,0,LWC V2.00 B2112,2013-02-03 23:57:00,
2013-02-03 19:02:00,31.2,28.3,29.89,SSW,212,0.0,0.0,89,0.00,,,0.05,0,LWC V2.00 B2112,2013-02-04 00:02:00,
2013-02-03 19:07:00,31.3,28.2,29.89,SSW,212,0.0,0.0,88,0.00,,,0.05,0,LWC V2.00 B2112,2013-02-04 00:07:00,
2013-02-03 19:12:00,31.3,28.2,29.89,SSW,212,0.0,1.0,88,0.00,,,0.05,0,LWC V2.00 B2112,2013-02-04 00:12:00,
2013-02-03 19:17:00,31.2,27.8,29.89,SW,214,0.0,2.0,87,0.00,,,0.05,0,LWC V2.00 B2112,2013-02-04 00:17:00,
2013-02-03 19:22:00,31.2,27.8,29.89,SW,214,0.0,0.0,87,0.00,,,0.05,0,LWC V2.00 B2112,2013-02-04 00:22:00,
2013-02-03 19:27:00,31.0,27.6,29.89,SW,214,0.0,0.0,87,0.00,,,0.05,0,LWC V2.00 B2112,2013-02-04 00:27:00,
2013-02-03 19:32:00,30.8,27.4,29.90,SW,214,0.0,0.0,87,0.00,,,0.05,0,LWC V2.00 B2112,2013-02-04 00:32:00,
2013-02-03 19:37:00,30.6,27.2,29.90,SW,214,0.0,0.0,87,0.00,,,0.05,0,LWC V2.00 B2112,2013-02-04 00:37:00,
2013-02-03 19:42:00,30.5,27.1,29.90,SW,214,0.0,0.0,87,0.00,,,0.05,0,LWC V2.00 B2112,2013-02-04 00:42:00,
2013-02-03 19:47:00,30.4,27.3,29.90,SW,214,0.0,0.0,88,0.00,,,0.05,0,LWC V2.00 B2112,2013-02-04 00:47:00,
2013-02-03 19:52:00,30.4,27.3,29.90,SW,214,0.0,0.0,88,0.00,,,0.05,0,LWC V2.00 B2112,2013-02-04 00:52:00,
2013-02-03 19:57:00,30.4,27.3,29.90,SW,214,0.0,0.0,88,0.00,,,0.05,0,LWC V2.00 B2112,2013-02-04 00:57:00,
2013-02-03 20:02:00,30.5,27.4,29.90,SW,214,0.0,0.0,88,0.00,,,0.05,0,LWC V2.00 B2112,2013-02-04 01:02:00,
2013-02-03 20:07:00,30.3,27.2,29.90,SW,214,0.0,0.0,88,0.00,,,0.05,0,LWC V2.00 B2112,2013-02-04 01:07:00,
2013-02-03 20:12:00,30.3,27.2,29.90,SW,233,0.0,0.0,88,0.00,,,0.05,0,LWC V2.00 B2112,2013-02-04 01:12:00,
2013-02-03 20:17:00,30.1,27.0,29.90,SW,233,1.0,1.0,88,0.00,,,0.05,0,LWC V2.00 B2112,2013-02-04 01:17:00,
2013-02-03 20:22:00,30.0,27.2,29.90,SW,233,0.0,0.0,89,0.00,,,0.05,0,LWC V2.00 B2112,2013-02-04 01:22:00,
2013-02-03 20:27:00,29.9,27.1,29.91,SW,233,0.0,0.0,89,0.00,,,0.05,0,LWC V2.00 B2112,2013-02-04 01:27:00,
2013-02-03 20:32:00,29.8,27.0,29.91,SW,233,0.0,0.0,89,0.00,,,0.05,0,LWC V2.00 B2112,2013-02-04 01:32:00,
2013-02-03 20:37:00,29.7,26.9,29.91,SW,233,0.0,0.0,89,0.00,,,0.05,0,LWC V2.00 B2112,2013-02-04 01:37:00,
2013-02-03 20:42:00,29.7,27.1,29.91,SW,233,0.0,0.0,90,0.00,,,0.05,0,LWC V2.00 B2112,2013-02-04 01:42:00,
2013-02-03 20:47:00,29.6,27.0,29.91,SW,233,0.0,0.0,90,0.00,,,0.05,0,LWC V2.00 B2112,2013-02-04 01:47:00,
2013-02-03 20:52:00,29.6,27.0,29.92,SW,233,0.0,0.0,90,0.00,,,0.05,0,LWC V2.00 B2112,2013-02-04 01:52:00,
2013-02-03 20:57:00,29.6,27.0,29.92,SW,233,0.0,0.0,90,0.00,,,0.05,0,LWC V2.00 B2112,2013-02-04 01:57:00,
2013-02-03 21:02:00,29.7,27.4,29.92,SW,233,0.0,0.0,91,0.00,,,0.05,0,LWC V2.00 B2112,2013-02-04 02:02:00,
2013-02-03 21:07:00,29.8,27.5,29.92,SW,235,1.0,2.0,91,0.00,,,0.05,0,LWC V2.00 B2112,2013-02-04 02:07:00,
2013-02-03 21:12:00,30.0,27.7,29.92,West,259,1.0,2.0,91,0.00,,,0.05,0,LWC V2.00 B2112,2013-02-04 02:12:00,
2013-02-03 21:17:00,30.2,27.6,29.92,NNW,333,0.0,1.0,90,0.00,,,0.05,0,LWC V2.00 B2112,2013-02-04 02:17:00,
2013-02-03 21:22:00,30.4,27.8,29.92,WNW,298,4.0,7.0,90,0.00,,,0.05,0,LWC V2.00 B2112,2013-02-04 02:22:00,
2013-02-03 21:27:00,30.8,27.9,29.92,NW,321,0.0,5.0,89,0.00,,,0.05,0,LWC V2.00 B2112,2013-02-04 02:27:00,
2013-02-03 21:32:00,31.1,28.0,29.92,West,278,2.0,2.0,88,0.00,,,0.05,0,LWC V2.00 B2112,2013-02-04 02:32:00,
2013-02-03 21:37:00,31.2,27.8,29.92,WNW,291,3.0,3.0,87,0.00,,,0.05,0,LWC V2.00 B2112,2013-02-04 02:37:00,
2013-02-03 21:42:00,31.4,27.7,29.93,NW,319,2.0,2.0,86,0.00,,,0.05,0,LWC V2.00 B2112,2013-02-04 02:42:00,
2013-02-03 21:47:00,31.6,27.6,29.93,NNW,338,6.0,7.0,85,0.00,,,0.05,0,LWC V2.00 B2112,2013-02-04 02:47:00,
2013-02-03 21:52:00,31.7,27.4,29.94,NW,306,0.0,5.0,84,0.00,,,0.05,0,LWC V2.00 B2112,2013-02-04 02:52:00,
2013-02-03 21:57:00,31.8,27.2,29.94,WNW,296,0.0,1.0,83,0.00,,,0.05,0,LWC V2.00 B2112,2013-02-04 02:57:00,
2013-02-03 22:02:00,31.7,27.1,29.94,North,349,0.0,6.0,83,0.00,,,0.05,0,LWC V2.00 B2112,2013-02-04 03:02:00,
2013-02-03 22:07:00,31.7,26.8,29.95,WNW,302,3.0,3.0,82,0.00,,,0.05,0,LWC V2.00 B2112,2013-02-04 03:07:00,
2013-02-03 22:12:00,31.6,26.5,29.95,NNW,332,4.0,4.0,81,0.00,,,0.05,0,LWC V2.00 B2112,2013-02-04 03:12:00,
2013-02-03 22:17:00,31.5,26.1,29.94,North,6,0.0,2.0,80,0.00,,,0.05,0,LWC V2.00 B2112,2013-02-04 03:17:00,
2013-02-03 22:22:00,31.5,25.8,29.95,North,349,0.0,6.0,79,0.00,,,0.05,0,LWC V2.00 B2112,2013-02-04 03:22:00,
2013-02-03 22:27:00,31.4,25.0,29.95,NNW,328,3.0,9.0,77,0.00,,,0.05,0,LWC V2.00 B2112,2013-02-04 03:27:00,
2013-02-03 22:32:00,31.3,24.6,29.96,NNW,342,3.0,8.0,76,0.00,,,0.05,0,LWC V2.00 B2112,2013-02-04 03:32:00,
2013-02-03 22:37:00,31.1,24.4,29.95,NNE,14,6.0,9.0,76,0.00,,,0.05,0,LWC V2.00 B2112,2013-02-04 03:37:00,
2013-02-03 22:42:00,30.8,23.8,29.96,ENE,62,4.0,9.0,75,0.00,,,0.05,0,LWC V2.00 B2112,2013-02-04 03:42:00,
2013-02-03 22:47:00,30.7,23.4,29.96,NNW,338,5.0,5.0,74,0.00,,,0.05,0,LWC V2.00 B2112,2013-02-04 03:47:00,
2013-02-03 22:52:00,30.6,23.3,29.96,NW,315,5.0,10.0,74,0.00,,,0.05,0,LWC V2.00 B2112,2013-02-04 03:52:00,
2013-02-03 22:57:00,30.6,23.0,29.96,NW,320,5.0,8.0,73,0.00,,,0.05,0,LWC V2.00 B2112,2013-02-04 03:57:00,
2013-02-03 23:02:00,30.5,22.9,29.96,WNW,300,2.0,4.0,73,0.00,,,0.05,0,LWC V2.00 B2112,2013-02-04 04:02:00,
2013-02-03 23:07:00,30.4,22.5,29.96,NW,317,3.0,5.0,72,0.00,,,0.05,0,LWC V2.00 B2112,2013-02-04 04:07:00,
2013-02-03 23:12:00,30.4,22.1,29.97,North,349,2.0,8.0,71,0.00,,,0.05,0,LWC V2.00 B2112,2013-02-04 04:12:00,
2013-02-03 23:17:00,30.4,22.1,29.97,NW,317,0.0,4.0,71,0.00,,,0.05,0,LWC V2.00 B2112,2013-02-04 04:17:00,
2013-02-03 23:22:00,30.3,22.4,29.97,NW,316,4.0,9.0,72,0.00,,,0.05,0,LWC V2.00 B2112,2013-02-04 04:22:00,
2013-02-03 23:27:00,30.2,21.9,29.98,NNW,348,1.0,6.0,71,0.00,,,0.05,0,LWC V2.00 B2112,2013-02-04 04:27:00,
2013-02-03 23:32:00,30.1,21.9,29.98,NW,326,2.0,7.0,71,0.00,,,0.05,0,LWC V2.00 B2112,2013-02-04 04:32:00,
2013-02-03 23:37:00,29.9,21.7,29.98,NW,316,3.0,8.0,71,0.00,,,0.05,0,LWC V2.00 B2112,2013-02-04 04:37:00,
2013-02-03 23:42:00,29.8,21.9,29.98,North,357,2.0,5.0,72,0.00,,,0.05,0,LWC V2.00 B2112,2013-02-04 04:42:00,
2013-02-03 23:47:00,29.7,21.8,29.98,WNW,294,2.0,3.0,72,0.00,,,0.05,0,LWC V2.00 B2112,2013-02-04 04:47:00,
2013-02-03 23:53:00,29.7,21.8,29.98,NNW,332,3.0,3.0,72,0.00,,,0.05,0,LWC V2.00 B2112,2013-02-04 04:53:00,
2013-02-03 23:58:00,29.6,21.7,29.98,WNW,289,1.0,5.0,72,0.00,,,0.05,0,LWC V2.00 B2112,2013-02-04 04:58:00,